| time (UTC) | temp C | wind direction | speed KPH | gust KPH | rain 1hr cm | rain 24hr cm | rain mn cm | humidity % | barometer mb |
| 20260906212436 | 21 | 13 | 1.6 | 1.6 | 0.03 | 2.29 | 2.29 | 98 | 1012.8 |
| 20260906211916 | 21 | 35 | 1.6 | 3.2 | 0.03 | 2.29 | 2.29 | 98 | 1012.7 |
| 20260906211416 | 21 | 350 | 1.6 | 3.2 | 0.00 | 2.26 | 2.26 | 98 | 1012.9 |
| 20260906210916 | 21 | 328 | 6.4 | 11.3 | 0.00 | 2.26 | 2.26 | 98 | 1012.9 |
| 20260906210416 | 21 | 350 | 3.2 | 4.8 | 0.00 | 2.26 | 2.26 | 98 | 1013.0 |
| 20260906205916 | 21 | 58 | 1.6 | 3.2 | 0.00 | 2.26 | 2.26 | 98 | 1012.9 |
| 20260906205436 | 21 | 58 | 4.8 | 9.7 | 0.00 | 2.26 | 2.26 | 98 | 1012.8 |
| 20260906204916 | 21 | 80 | 6.4 | 9.7 | 0.00 | 2.26 | 2.26 | 98 | 1012.9 |
| 20260906204416 | 21 | 35 | 4.8 | 9.7 | 0.00 | 2.26 | 2.26 | 98 | 1012.8 |
| 20260906203956 | 21 | 35 | 1.6 | 3.2 | 0.00 | 2.26 | 2.26 | 98 | 1012.8 |
| 20260906203416 | 20 | 35 | 4.8 | 6.4 | 0.00 | 2.26 | 2.26 | 98 | 1013.1 |
| 20260906202916 | 20 | 58 | 1.6 | 3.2 | 0.00 | 2.26 | 2.26 | 98 | 1013.4 |
| 20260906202416 | 20 | 35 | 1.6 | 3.2 | 0.03 | 2.26 | 2.26 | 98 | 1013.4 |
| 20260906201936 | 20 | 0.0 | 1.6 | 0.03 | 2.26 | 2.26 | 98 | 1013.5 | |
| 20260906201416 | 20 | 35 | 1.6 | 3.2 | 0.03 | 2.26 | 2.26 | 98 | 1013.6 |
| 20260906200916 | 20 | 350 | 4.8 | 6.4 | 0.05 | 2.26 | 2.26 | 98 | 1013.7 |
| 20260906200416 | 20 | 35 | 3.2 | 4.8 | 0.05 | 2.26 | 2.26 | 98 | 1013.6 |
| 20260906195956 | 20 | 350 | 3.2 | 3.2 | 0.05 | 2.26 | 2.26 | 98 | 1014.0 |
| 20260906195416 | 20 | 283 | 4.8 | 6.4 | 0.05 | 2.26 | 2.26 | 98 | 1014.2 |
| 20260906194936 | 20 | 305 | 4.8 | 8.0 | 0.10 | 2.26 | 2.26 | 98 | 1014.3 |
| 20260906194416 | 20 | 328 | 4.8 | 6.4 | 0.18 | 2.26 | 2.26 | 98 | 1014.3 |
| 20260906193916 | 20 | 328 | 4.8 | 8.0 | 0.20 | 2.26 | 2.26 | 98 | 1014.5 |
| 20260906193416 | 20 | 283 | 3.2 | 4.8 | 0.23 | 2.26 | 2.26 | 98 | 1014.7 |
| 20260906192916 | 20 | 328 | 4.8 | 4.8 | 0.25 | 2.26 | 2.26 | 98 | 1014.5 |
| 20260906192416 | 20 | 0.0 | 1.6 | 0.25 | 2.24 | 2.24 | 98 | 1014.3 | |
| 20260906191916 | 20 | 13 | 3.2 | 8.0 | 0.30 | 2.24 | 2.24 | 97 | 1014.1 |
| 20260906191436 | 20 | 35 | 4.8 | 6.4 | 0.36 | 2.24 | 2.24 | 97 | 1014.1 |
| 20260906190936 | 20 | 35 | 1.6 | 6.4 | 0.33 | 2.21 | 2.21 | 97 | 1014.3 |
| 20260906190416 | 20 | 328 | 4.8 | 6.4 | 0.38 | 2.21 | 2.21 | 97 | 1014.4 |
| 20260906185916 | 19 | 350 | 3.2 | 6.4 | 0.46 | 2.21 | 2.21 | 97 | 1014.4 |
| 20260906185416 | 19 | 13 | 4.8 | 6.4 | 0.51 | 2.21 | 2.21 | 97 | 1014.7 |
| 20260906184916 | 19 | 328 | 1.6 | 3.2 | 0.48 | 2.16 | 2.16 | 97 | 1014.8 |
| 20260906184416 | 19 | 35 | 3.2 | 4.8 | 0.43 | 2.08 | 2.08 | 97 | 1015.0 |
| 20260906183916 | 19 | 0.0 | 1.6 | 0.46 | 2.06 | 2.06 | 97 | 1015.0 | |
| 20260906183416 | 19 | 0.0 | 1.6 | 0.46 | 2.03 | 2.03 | 97 | 1015.3 | |
| 20260906182916 | 19 | 58 | 3.2 | 3.2 | 0.58 | 2.01 | 2.01 | 97 | 1015.1 |
| 20260906182416 | 19 | 13 | 1.6 | 1.6 | 0.66 | 1.98 | 1.98 | 97 | 1015.3 |
| 20260906181916 | 19 | 58 | 1.6 | 3.2 | 0.79 | 1.93 | 1.93 | 97 | 1015.1 |
| 20260906181416 | 18 | 350 | 6.4 | 8.0 | 0.97 | 1.88 | 1.88 | 97 | 1015.4 |
| 20260906180916 | 19 | 0.0 | 1.6 | 1.07 | 1.88 | 1.88 | 97 | 1015.4 | |
| 20260906180416 | 19 | 58 | 4.8 | 6.4 | 1.22 | 1.83 | 1.83 | 97 | 1015.0 |
| 20260906180036 | 19 | 350 | 4.8 | 6.4 | 1.19 | 1.75 | 1.75 | 97 | 1015.4 |
| 20260906175415 | 19 | 0.0 | 1.6 | 1.19 | 1.70 | 1.70 | 97 | 1015.6 | |
| 20260906174916 | 19 | 350 | 4.8 | 6.4 | 1.19 | 1.68 | 1.68 | 97 | 1015.5 |
| 20260906174416 | 18 | 328 | 3.2 | 4.8 | 1.19 | 1.65 | 1.65 | 97 | 1015.6 |
| 20260906173915 | 18 | 350 | 4.8 | 8.0 | 1.14 | 1.60 | 1.60 | 97 | 1015.4 |
| 20260906173415 | 18 | 13 | 4.8 | 8.0 | 1.14 | 1.57 | 1.57 | 97 | 1015.2 |
| 20260906172936 | 18 | 35 | 3.2 | 4.8 | 1.02 | 1.42 | 1.42 | 97 | 1015.3 |
| 20260906172416 | 18 | 305 | 1.6 | 3.2 | 0.91 | 1.32 | 1.32 | 97 | 1015.6 |
| 20260906171936 | 18 | 58 | 3.2 | 4.8 | 0.79 | 1.14 | 1.14 | 97 | 1015.4 |
| 20260906171415 | 18 | 283 | 3.2 | 3.2 | 0.61 | 0.91 | 0.91 | 97 | 1015.8 |
| 20260906170915 | 18 | 283 | 3.2 | 6.4 | 0.56 | 0.81 | 0.81 | 97 | 1015.6 |
| 20260906170416 | 18 | 283 | 1.6 | 3.2 | 0.38 | 0.61 | 0.61 | 97 | 1015.1 |
| 20260906165916 | 18 | 0.0 | 0.0 | 0.33 | 0.56 | 0.56 | 96 | 1014.9 | |
| 20260906165415 | 18 | 35 | 1.6 | 3.2 | 0.33 | 0.51 | 0.51 | 96 | 1014.6 |
| 20260906164916 | 18 | 350 | 6.4 | 8.0 | 0.33 | 0.48 | 0.48 | 96 | 1014.6 |
| 20260906164415 | 18 | 35 | 1.6 | 3.2 | 0.33 | 0.46 | 0.46 | 96 | 1014.5 |
| 20260906163916 | 18 | 58 | 1.6 | 3.2 | 0.33 | 0.46 | 0.46 | 96 | 1014.5 |
| 20260906163415 | 18 | 13 | 3.2 | 4.8 | 0.30 | 0.43 | 0.43 | 96 | 1014.5 |
| 20260906162915 | 18 | 0.0 | 0.0 | 0.28 | 0.41 | 0.41 | 95 | 1014.6 | |
| 20260906162415 | 18 | 0.0 | 1.6 | 0.28 | 0.41 | 0.41 | 95 | 1014.7 | |
| 20260906161916 | 18 | 0.0 | 0.0 | 0.23 | 0.36 | 0.36 | 94 | 1014.7 | |
| 20260906161415 | 19 | 0.0 | 1.6 | 0.18 | 0.30 | 0.30 | 92 | 1014.8 | |
| 20260906160915 | 19 | 283 | 1.6 | 4.8 | 0.13 | 0.25 | 0.25 | 90 | 1014.9 |
| 20260906160416 | 20 | 283 | 4.8 | 6.4 | 0.10 | 0.23 | 0.23 | 88 | 1014.7 |
| 20260906155915 | 20 | 0.0 | 3.2 | 0.10 | 0.23 | 0.23 | 88 | 1014.5 | |
| 20260906155416 | 20 | 283 | 1.6 | 3.2 | 0.05 | 0.18 | 0.18 | 87 | 1014.3 |
| 20260906154915 | 20 | 238 | 1.6 | 3.2 | 0.03 | 0.15 | 0.15 | 87 | 1014.1 |
| 20260906154455 | 20 | 260 | 3.2 | 4.8 | 0.00 | 0.13 | 0.13 | 87 | 1013.9 |
| 20260906153917 | 20 | 260 | 3.2 | 3.2 | 0.00 | 0.13 | 0.13 | 87 | 1013.7 |
| 20260906153415 | 20 | 0.0 | 3.2 | 0.00 | 0.13 | 0.13 | 87 | 1013.6 | |
| 20260906152915 | 20 | 0.0 | 1.6 | 0.00 | 0.13 | 0.13 | 87 | 1013.5 | |
| 20260906152435 | 20 | 0.0 | 1.6 | 0.03 | 0.13 | 0.13 | 87 | 1013.4 | |
| 20260906151916 | 20 | 0.0 | 1.6 | 0.03 | 0.13 | 0.13 | 87 | 1013.4 | |
| 20260906151416 | 19 | 0.0 | 1.6 | 0.03 | 0.13 | 0.13 | 87 | 1013.5 | |
| 20260906150935 | 19 | 260 | 3.2 | 4.8 | 0.03 | 0.13 | 0.13 | 87 | 1013.4 |
| 20260906150415 | 19 | 283 | 1.6 | 3.2 | 0.03 | 0.13 | 0.13 | 87 | 1013.3 |
| 20260906145916 | 19 | 283 | 3.2 | 4.8 | 0.03 | 0.13 | 0.13 | 86 | 1012.9 |
| 20260906145415 | 19 | 350 | 3.2 | 4.8 | 0.05 | 0.13 | 0.13 | 86 | 1012.9 |
| 20260906144915 | 19 | 350 | 3.2 | 4.8 | 0.05 | 0.13 | 0.13 | 86 | 1013.1 |
| 20260906144535 | 18 | 350 | 1.6 | 4.8 | 0.05 | 0.13 | 0.13 | 85 | 1013.1 |
| 20260906143915 | 19 | 0.0 | 1.6 | 0.08 | 0.13 | 0.13 | 85 | 1013.1 | |
| 20260906143415 | 19 | 0.0 | 1.6 | 0.08 | 0.13 | 0.13 | 85 | 1013.2 | |
| 20260906142915 | 19 | 0.0 | 0.0 | 0.08 | 0.13 | 0.13 | 84 | 1013.6 | |
| 20260906142436 | 19 | 305 | 3.2 | 4.8 | 0.05 | 0.10 | 0.10 | 84 | 1013.7 |
| 20260906141935 | 20 | 328 | 4.8 | 8.0 | 0.05 | 0.10 | 0.10 | 85 | 1013.6 |
| 20260906141415 | 20 | 0.0 | 0.0 | 0.05 | 0.10 | 0.10 | 87 | 1013.4 | |
| 20260906140915 | 20 | 0.0 | 1.6 | 0.05 | 0.10 | 0.10 | 87 | 1013.4 | |
| 20260906140415 | 20 | 328 | 1.6 | 3.2 | 0.05 | 0.10 | 0.10 | 86 | 1013.1 |
| 20260906135915 | 20 | 350 | 3.2 | 4.8 | 0.05 | 0.10 | 0.10 | 86 | 1012.9 |
| 20260906135415 | 20 | 350 | 4.8 | 8.0 | 0.03 | 0.08 | 0.08 | 85 | 1012.8 |
| 20260906134935 | 20 | 13 | 4.8 | 9.7 | 0.03 | 0.08 | 0.08 | 84 | 1012.9 |
| 20260906134435 | 21 | 328 | 8.0 | 11.3 | 0.03 | 0.08 | 0.08 | 83 | 1013.0 |
| 20260906133935 | 21 | 350 | 8.0 | 11.3 | 0.00 | 0.05 | 0.05 | 82 | 1013.0 |
| 20260906133435 | 20 | 350 | 6.4 | 9.7 | 0.00 | 0.05 | 0.05 | 81 | 1013.0 |
| 20260906132935 | 20 | 328 | 4.8 | 6.4 | 0.00 | 0.05 | 0.05 | 80 | 1013.1 |
| 20260906132415 | 21 | 350 | 4.8 | 6.4 | 0.00 | 0.05 | 0.05 | 80 | 1013.2 |
| 20260906131915 | 21 | 328 | 1.6 | 3.2 | 0.03 | 0.05 | 0.05 | 79 | 1013.1 |
| 20260906131415 | 21 | 328 | 1.6 | 3.2 | 0.03 | 0.05 | 0.05 | 78 | 1013.1 |
| 20260906130915 | 21 | 350 | 1.6 | 3.2 | 0.03 | 0.05 | 0.05 | 78 | 1013.0 |
| 20260906130415 | 21 | 328 | 1.6 | 3.2 | 0.05 | 0.05 | 0.05 | 78 | 1013.0 |
| 20260906125915 | 21 | 328 | 4.8 | 6.4 | 0.05 | 0.05 | 0.05 | 78 | 1012.9 |
| 20260906125415 | 21 | 328 | 3.2 | 4.8 | 0.05 | 0.05 | 0.05 | 81 | 1012.9 |
| 20260906124915 | 21 | 350 | 3.2 | 6.4 | 0.05 | 0.05 | 0.05 | 81 | 1012.6 |
| 20260906124415 | 21 | 305 | 3.2 | 4.8 | 0.05 | 0.05 | 0.05 | 85 | 1012.8 |
| 20260906123915 | 21 | 283 | 3.2 | 4.8 | 0.05 | 0.05 | 0.05 | 84 | 1012.8 |
| 20260906123415 | 21 | 283 | 3.2 | 4.8 | 0.05 | 0.05 | 0.05 | 83 | 1012.6 |
| 20260906122915 | 21 | 283 | 4.8 | 4.8 | 0.05 | 0.05 | 0.05 | 81 | 1012.3 |
| 20260906122415 | 21 | 305 | 3.2 | 4.8 | 0.05 | 0.05 | 0.05 | 83 | 1012.2 |
| 20260906121915 | 22 | 305 | 1.6 | 3.2 | 0.03 | 0.03 | 0.03 | 84 | 1012.2 |
| 20260906121417 | 22 | 0.0 | 1.6 | 0.03 | 0.03 | 0.03 | 83 | 1012.0 | |
| 20260906120937 | 22 | 260 | 3.2 | 4.8 | 0.03 | 0.03 | 0.03 | 82 | 1012.3 |
| 20260906120415 | 22 | 260 | 4.8 | 6.4 | 0.00 | 0.00 | 0.00 | 82 | 1012.1 |
| 20260906115917 | 22 | 283 | 3.2 | 3.2 | 0.00 | 0.00 | 0.00 | 81 | 1011.8 |
| 20260906115415 | 22 | 260 | 1.6 | 3.2 | 0.00 | 0.00 | 0.00 | 81 | 1011.8 |
| 20260906114917 | 22 | 0.0 | 0.0 | 0.00 | 0.00 | 0.00 | 80 | 1011.7 | |
| 20260906114415 | 22 | 0.0 | 0.0 | 0.00 | 0.00 | 0.00 | 79 | 1011.5 | |
| 20260906113917 | 22 | 0.0 | 0.0 | 0.00 | 0.00 | 0.00 | 79 | 1011.6 | |
| 20260906113417 | 22 | 0.0 | 0.0 | 0.00 | 0.00 | 0.00 | 79 | 1011.5 | |
| 20260906112917 | 22 | 0.0 | 0.0 | 0.00 | 0.00 | 0.00 | 79 | 1011.6 | |
| 20260906112417 | 22 | 0.0 | 0.0 | 0.00 | 0.00 | 0.00 | 79 | 1011.7 | |
| 20260906111917 | 22 | 0.0 | 0.0 | 0.00 | 0.00 | 0.00 | 79 | 1011.7 | |
| 20260906111417 | 22 | 0.0 | 0.0 | 0.00 | 0.00 | 0.00 | 80 | 1011.7 | |
| 20260906110937 | 22 | 0.0 | 0.0 | 0.00 | 0.00 | 0.00 | 79 | 1011.6 | |
| 20260906110417 | 22 | 0.0 | 0.0 | 0.00 | 0.00 | 0.00 | 79 | 1011.7 | |
| 20260906105917 | 22 | 0.0 | 0.0 | 0.00 | 0.00 | 0.00 | 79 | 1011.6 | |
| 20260906105417 | 22 | 0.0 | 0.0 | 0.00 | 0.00 | 0.00 | 79 | 1011.7 | |
| 20260906104917 | 22 | 0.0 | 0.0 | 0.00 | 0.00 | 0.00 | 79 | 1011.8 | |
| 20260906104417 | 22 | 0.0 | 0.0 | 0.00 | 0.00 | 0.00 | 79 | 1011.7 | |
| 20260906103917 | 22 | 0.0 | 0.0 | 0.00 | 0.00 | 0.00 | 79 | 1011.8 | |
| 20260906103417 | 22 | 0.0 | 0.0 | 0.00 | 0.00 | 0.00 | 80 | 1011.8 | |
| 20260906102917 | 22 | 0.0 | 0.0 | 0.00 | 0.00 | 0.00 | 80 | 1011.7 | |
| 20260906102417 | 22 | 0.0 | 0.0 | 0.00 | 0.00 | 0.00 | 80 | 1011.8 | |
| 20260906101917 | 21 | 0.0 | 0.0 | 0.00 | 0.00 | 0.00 | 81 | 1011.9 | |
| 20260906101417 | 21 | 0.0 | 0.0 | 0.00 | 0.00 | 0.00 | 81 | 1011.8 | |
| 20260906100917 | 21 | 0.0 | 0.0 | 0.00 | 0.00 | 0.00 | 81 | 1011.8 | |
| 20260906100417 | 21 | 0.0 | 0.0 | 0.00 | 0.00 | 0.00 | 81 | 1011.7 | |
| 20260906095917 | 21 | 0.0 | 0.0 | 0.00 | 0.00 | 0.00 | 81 | 1011.7 | |
| 20260906095417 | 21 | 0.0 | 0.0 | 0.00 | 0.00 | 0.00 | 81 | 1011.8 | |
| 20260906094917 | 21 | 0.0 | 0.0 | 0.00 | 0.00 | 0.00 | 81 | 1011.8 | |
| 20260906094437 | 21 | 0.0 | 0.0 | 0.00 | 0.00 | 0.00 | 81 | 1011.8 | |
| 20260906093917 | 21 | 0.0 | 0.0 | 0.00 | 0.00 | 0.00 | 81 | 1011.8 | |
| 20260906093417 | 21 | 0.0 | 0.0 | 0.00 | 0.00 | 0.00 | 82 | 1011.9 | |
| 20260906092917 | 21 | 0.0 | 0.0 | 0.00 | 0.00 | 0.00 | 82 | 1012.0 | |
| 20260906092417 | 21 | 0.0 | 0.0 | 0.00 | 0.00 | 0.00 | 82 | 1011.9 | |
| 20260906091917 | 21 | 0.0 | 0.0 | 0.00 | 0.00 | 0.00 | 82 | 1011.9 | |
| 20260906091437 | 21 | 0.0 | 0.0 | 0.00 | 0.00 | 0.00 | 82 | 1011.8 | |
| 20260906090917 | 21 | 0.0 | 0.0 | 0.00 | 0.00 | 0.00 | 83 | 1011.8 | |
| 20260906090417 | 21 | 0.0 | 0.0 | 0.00 | 0.00 | 0.00 | 83 | 1011.8 | |
| 20260906085917 | 21 | 0.0 | 0.0 | 0.00 | 0.00 | 0.00 | 83 | 1011.9 | |
| 20260906085417 | 21 | 0.0 | 0.0 | 0.00 | 0.00 | 0.00 | 83 | 1011.9 | |
| 20260906084917 | 21 | 0.0 | 0.0 | 0.00 | 0.00 | 0.00 | 83 | 1011.9 | |
| 20260906084417 | 21 | 0.0 | 0.0 | 0.00 | 0.00 | 0.00 | 84 | 1012.1 | |
| 20260906083917 | 21 | 0.0 | 0.0 | 0.00 | 0.00 | 0.00 | 84 | 1012.0 | |
| 20260906083417 | 21 | 0.0 | 0.0 | 0.00 | 0.00 | 0.00 | 84 | 1012.1 | |
| 20260906082917 | 21 | 0.0 | 0.0 | 0.00 | 0.00 | 0.00 | 83 | 1012.1 | |
| 20260906082417 | 21 | 0.0 | 0.0 | 0.00 | 0.00 | 0.00 | 84 | 1012.1 | |
| 20260906081917 | 21 | 0.0 | 0.0 | 0.00 | 0.00 | 0.00 | 84 | 1012.1 | |
| 20260906081417 | 21 | 0.0 | 0.0 | 0.00 | 0.00 | 0.00 | 84 | 1012.2 | |
| 20260906080916 | 21 | 0.0 | 0.0 | 0.00 | 0.00 | 0.00 | 83 | 1012.3 | |
| 20260906080437 | 21 | 0.0 | 0.0 | 0.00 | 0.00 | 0.00 | 83 | 1012.2 | |
| 20260906075917 | 21 | 0.0 | 0.0 | 0.00 | 0.00 | 0.00 | 83 | 1012.1 | |
| 20260906075417 | 21 | 0.0 | 0.0 | 0.00 | 0.00 | 0.00 | 83 | 1012.1 | |
| 20260906074916 | 21 | 0.0 | 0.0 | 0.00 | 0.00 | 0.00 | 83 | 1012.1 | |
| 20260906074417 | 21 | 0.0 | 0.0 | 0.00 | 0.00 | 0.00 | 83 | 1012.1 | |
| 20260906073917 | 21 | 0.0 | 0.0 | 0.00 | 0.00 | 0.00 | 83 | 1012.1 | |
| 20260906073457 | 21 | 0.0 | 0.0 | 0.00 | 0.00 | 0.00 | 83 | 1012.2 | |
| 20260906072917 | 21 | 0.0 | 0.0 | 0.00 | 0.00 | 0.00 | 82 | 1012.1 | |
| 20260906072417 | 21 | 0.0 | 0.0 | 0.00 | 0.00 | 0.00 | 82 | 1012.1 | |
| 20260906071916 | 21 | 0.0 | 0.0 | 0.00 | 0.00 | 0.00 | 82 | 1012.2 | |
| 20260906071416 | 21 | 0.0 | 0.0 | 0.00 | 0.00 | 0.00 | 82 | 1012.2 | |
| 20260906070916 | 21 | 0.0 | 0.0 | 0.00 | 0.00 | 0.00 | 82 | 1012.2 | |
| 20260906070417 | 21 | 0.0 | 0.0 | 0.00 | 0.00 | 0.00 | 82 | 1012.2 | |
| 20260906065955 | 22 | 0.0 | 0.0 | 0.00 | 0.00 | 0.00 | 82 | 1012.1 | |
| 20260906065417 | 22 | 0.0 | 0.0 | 0.00 | 0.00 | 0.00 | 82 | 1012.0 | |
| 20260906065018 | 22 | 305 | 3.2 | 4.8 | 0.00 | 0.00 | 0.00 | 82 | 1011.9 |
| 20260906064417 | 22 | 0.0 | 1.6 | 0.00 | 0.00 | 0.00 | 82 | 1011.9 | |
| 20260906063917 | 22 | 0.0 | 0.0 | 0.00 | 0.00 | 0.00 | 81 | 1012.0 | |
| 20260906063415 | 22 | 0.0 | 0.0 | 0.00 | 0.00 | 0.00 | 81 | 1012.0 | |
| 20260906062917 | 22 | 0.0 | 0.0 | 0.00 | 0.00 | 0.00 | 82 | 1012.1 | |
| 20260906062437 | 22 | 0.0 | 0.0 | 0.00 | 0.00 | 0.00 | 81 | 1012.1 | |
| 20260906061917 | 22 | 0.0 | 0.0 | 0.00 | 0.00 | 0.00 | 81 | 1012.1 | |
| 20260906061417 | 22 | 0.0 | 1.6 | 0.00 | 0.00 | 0.00 | 81 | 1012.1 | |
| 20260906060937 | 22 | 260 | 3.2 | 4.8 | 0.00 | 0.00 | 0.00 | 81 | 1012.1 |
| 20260906060417 | 22 | 0.0 | 1.6 | 0.00 | 0.00 | 0.00 | 80 | 1012.1 | |
| 20260906055917 | 22 | 260 | 1.6 | 4.8 | 0.00 | 0.00 | 0.00 | 79 | 1012.2 |
| 20260906055437 | 22 | 0.0 | 1.6 | 0.00 | 0.00 | 0.00 | 79 | 1012.1 | |
| 20260906054917 | 22 | 283 | 1.6 | 3.2 | 0.00 | 0.00 | 0.00 | 79 | 1012.2 |
| 20260906054417 | 22 | 0.0 | 0.0 | 0.00 | 0.00 | 0.00 | 77 | 1012.3 | |
| 20260906053917 | 22 | 0.0 | 0.0 | 0.00 | 0.00 | 0.00 | 77 | 1012.3 | |
| 20260906053417 | 22 | 238 | 1.6 | 4.8 | 0.00 | 0.00 | 0.00 | 76 | 1012.3 |
| 20260906052917 | 22 | 0.0 | 0.0 | 0.00 | 0.00 | 0.00 | 75 | 1012.3 | |
| 20260906052437 | 22 | 283 | 1.6 | 3.2 | 0.00 | 0.00 | 0.00 | 74 | 1012.4 |
| 20260906051917 | 22 | 260 | 3.2 | 6.4 | 0.00 | 0.00 | 0.00 | 73 | 1012.5 |
| 20260906051417 | 22 | 260 | 1.6 | 1.6 | 0.00 | 0.00 | 0.00 | 73 | 1012.5 |
| 20260906050917 | 22 | 260 | 3.2 | 4.8 | 0.00 | 0.00 | 0.00 | 72 | 1012.5 |
| 20260906050417 | 22 | 283 | 1.6 | 3.2 | 0.00 | 0.00 | 0.00 | 72 | 1012.5 |
| 20260906045937 | 22 | 260 | 3.2 | 3.2 | 0.00 | 0.00 | 0.00 | 73 | 1012.5 |
| 20260906045437 | 22 | 260 | 3.2 | 4.8 | 0.00 | 0.00 | 0.00 | 72 | 1012.5 |
| 20260906044917 | 22 | 260 | 4.8 | 6.4 | 0.00 | 0.00 | 0.00 | 72 | 1012.5 |
| 20260906044417 | 22 | 283 | 4.8 | 6.4 | 0.00 | 0.00 | 0.00 | 71 | 1012.5 |
| 20260906043937 | 22 | 283 | 1.6 | 1.6 | 0.00 | 0.00 | 0.00 | 70 | 1012.5 |
| 20260906043417 | 22 | 260 | 3.2 | 4.8 | 0.00 | 0.00 | 0.00 | 70 | 1012.4 |
| 20260906042917 | 22 | 260 | 3.2 | 3.2 | 0.00 | 0.00 | 0.00 | 69 | 1012.4 |
| 20260906042417 | 23 | 283 | 4.8 | 8.0 | 0.00 | 0.00 | 0.00 | 69 | 1012.4 |
| 20260906041917 | 23 | 283 | 4.8 | 8.0 | 0.00 | 0.00 | 0.00 | 69 | 1012.4 |
| 20260906041417 | 23 | 260 | 4.8 | 8.0 | 0.00 | 0.00 | 0.00 | 68 | 1012.3 |
| 20260906040937 | 23 | 283 | 4.8 | 6.4 | 0.00 | 0.00 | 0.00 | 68 | 1012.3 |
| 20260906040417 | 23 | 283 | 6.4 | 11.3 | 0.00 | 0.00 | 0.00 | 68 | 1012.2 |
| 20260906035937 | 23 | 283 | 4.8 | 8.0 | 0.00 | 0.00 | 0.00 | 69 | 1012.2 |
| 20260906035417 | 23 | 305 | 4.8 | 8.0 | 0.00 | 0.00 | 0.00 | 68 | 1012.2 |
| 20260906034917 | 23 | 305 | 4.8 | 6.4 | 0.00 | 0.00 | 0.00 | 67 | 1012.2 |
| 20260906034417 | 23 | 283 | 3.2 | 6.4 | 0.00 | 0.00 | 0.00 | 67 | 1012.1 |
| 20260906033917 | 23 | 305 | 4.8 | 6.4 | 0.00 | 0.00 | 0.00 | 67 | 1012.1 |
| 20260906033457 | 23 | 283 | 3.2 | 6.4 | 0.00 | 0.00 | 0.00 | 66 | 1012.0 |
| 20260906032917 | 23 | 260 | 4.8 | 8.0 | 0.00 | 0.00 | 0.00 | 66 | 1011.9 |
| 20260906032417 | 23 | 283 | 1.6 | 3.2 | 0.00 | 0.00 | 0.00 | 67 | 1011.8 |
| 20260906031917 | 23 | 283 | 4.8 | 6.4 | 0.00 | 0.00 | 0.00 | 68 | 1011.8 |
| 20260906031417 | 23 | 283 | 4.8 | 6.4 | 0.00 | 0.00 | 0.00 | 69 | 1011.8 |
| 20260906030917 | 23 | 283 | 4.8 | 6.4 | 0.00 | 0.00 | 0.00 | 72 | 1011.7 |
| 20260906030417 | 23 | 283 | 4.8 | 9.7 | 0.00 | 0.00 | 0.00 | 72 | 1011.7 |
| 20260906025937 | 23 | 283 | 6.4 | 9.7 | 0.00 | 0.00 | 0.00 | 74 | 1011.7 |
| 20260906025416 | 23 | 283 | 3.2 | 6.4 | 0.00 | 0.00 | 0.00 | 74 | 1011.6 |
| 20260906024917 | 23 | 283 | 3.2 | 4.8 | 0.00 | 0.00 | 0.00 | 74 | 1011.6 |
| 20260906024417 | 23 | 283 | 3.2 | 4.8 | 0.00 | 0.00 | 0.00 | 73 | 1011.5 |
| 20260906023916 | 23 | 283 | 4.8 | 8.0 | 0.00 | 0.00 | 0.00 | 73 | 1011.6 |
| 20260906023416 | 23 | 305 | 3.2 | 6.4 | 0.00 | 0.00 | 0.00 | 72 | 1011.6 |
| 20260906022917 | 23 | 283 | 3.2 | 6.4 | 0.00 | 0.00 | 0.00 | 72 | 1011.7 |
| 20260906022417 | 24 | 260 | 8.0 | 14.5 | 0.00 | 0.00 | 0.00 | 72 | 1011.6 |
| 20260906021916 | 24 | 283 | 6.4 | 11.3 | 0.00 | 0.00 | 0.00 | 72 | 1011.6 |
| 20260906021416 | 24 | 283 | 4.8 | 8.0 | 0.00 | 0.00 | 0.00 | 71 | 1011.6 |
| 20260906020916 | 24 | 260 | 8.0 | 12.9 | 0.00 | 0.00 | 0.00 | 70 | 1011.7 |
| 20260906020417 | 25 | 283 | 3.2 | 6.4 | 0.00 | 0.00 | 0.00 | 70 | 1011.7 |
| 20260906015917 | 25 | 283 | 6.4 | 11.3 | 0.00 | 0.00 | 0.00 | 69 | 1011.7 |
| 20260906015416 | 25 | 283 | 8.0 | 14.5 | 0.00 | 0.00 | 0.00 | 68 | 1011.7 |
| 20260906014916 | 25 | 283 | 4.8 | 8.0 | 0.00 | 0.00 | 0.00 | 67 | 1011.6 |
| 20260906014417 | 25 | 260 | 8.0 | 11.3 | 0.00 | 0.00 | 0.00 | 66 | 1011.7 |
| 20260906013936 | 25 | 283 | 3.2 | 6.4 | 0.00 | 0.00 | 0.00 | 65 | 1011.6 |
| 20260906013416 | 25 | 283 | 6.4 | 9.7 | 0.00 | 0.00 | 0.00 | 65 | 1011.6 |
| 20260906012916 | 25 | 283 | 8.0 | 12.9 | 0.00 | 0.00 | 0.00 | 65 | 1011.6 |
| 20260906012416 | 26 | 260 | 6.4 | 12.9 | 0.00 | 0.00 | 0.00 | 65 | 1011.6 |
| 20260906011916 | 26 | 305 | 9.7 | 16.1 | 0.00 | 0.00 | 0.00 | 63 | 1011.5 |
| 20260906011416 | 26 | 260 | 8.0 | 12.9 | 0.00 | 0.00 | 0.00 | 63 | 1011.4 |
| 20260906010917 | 26 | 260 | 8.0 | 12.9 | 0.00 | 0.00 | 0.00 | 63 | 1011.4 |
| 20260906010416 | 26 | 283 | 8.0 | 11.3 | 0.00 | 0.00 | 0.00 | 62 | 1011.4 |
| 20260906005917 | 26 | 283 | 12.9 | 16.1 | 0.00 | 0.00 | 0.00 | 60 | 1011.4 |
| 20260906005416 | 26 | 260 | 9.7 | 12.9 | 0.00 | 0.00 | 0.00 | 60 | 1011.5 |
| 20260906004916 | 26 | 283 | 9.7 | 12.9 | 0.00 | 0.00 | 0.00 | 58 | 1011.5 |
| 20260906004417 | 27 | 283 | 8.0 | 11.3 | 0.00 | 0.00 | 0.00 | 57 | 1011.5 |
| 20260906003916 | 27 | 283 | 8.0 | 12.9 | 0.00 | 0.00 | 0.00 | 55 | 1011.4 |
| 20260906003416 | 27 | 283 | 9.7 | 14.5 | 0.00 | 0.00 | 0.00 | 56 | 1011.4 |
| 20260906002917 | 27 | 283 | 8.0 | 12.9 | 0.00 | 0.00 | 0.00 | 55 | 1011.4 |
| 20260906002417 | 27 | 305 | 6.4 | 11.3 | 0.00 | 0.00 | 0.00 | 55 | 1011.3 |
| 20260906001917 | 28 | 283 | 9.7 | 14.5 | 0.00 | 0.00 | 0.00 | 53 | 1011.4 |
| 20260906001436 | 28 | 260 | 4.8 | 9.7 | 0.00 | 0.00 | 0.00 | 53 | 1011.3 |
| 20260906000917 | 28 | 283 | 9.7 | 11.3 | 0.00 | 0.00 | 0.00 | 52 | 1011.3 |
| 20260906000418 | 29 | 283 | 4.8 | 8.0 | 0.00 | 0.00 | 0.00 | 50 | 1011.3 |
| 20260905235916 | 29 | 283 | 6.4 | 9.7 | 0.00 | 0.00 | 0.00 | 49 | 1011.2 |
| 20260905235416 | 29 | 283 | 9.7 | 14.5 | 0.00 | 0.00 | 0.00 | 48 | 1011.2 |
| 20260905234917 | 30 | 283 | 11.3 | 19.3 | 0.00 | 0.00 | 0.00 | 47 | 1011.3 |
| 20260905234416 | 30 | 260 | 11.3 | 16.1 | 0.00 | 0.00 | 0.00 | 47 | 1011.3 |
| 20260905233936 | 31 | 283 | 11.3 | 17.7 | 0.00 | 0.00 | 0.00 | 45 | 1011.2 |
| 20260905233416 | 31 | 283 | 9.7 | 14.5 | 0.00 | 0.00 | 0.00 | 42 | 1011.2 |
| 20260905232916 | 31 | 305 | 3.2 | 9.7 | 0.00 | 0.00 | 0.00 | 41 | 1011.2 |
| 20260905232416 | 31 | 238 | 8.0 | 16.1 | 0.00 | 0.00 | 0.00 | 42 | 1011.2 |
| 20260905231916 | 31 | 0.0 | 0.0 | 0.00 | 0.00 | 0.00 | 40 | 1011.2 | |
| 20260905231416 | 32 | 0.0 | 0.0 | 0.00 | 0.00 | 0.00 | 26 | 1011.2 | |
| 20260905230916 | 32 | 0.0 | 0.0 | 0.00 | 0.00 | 0.00 | 26 | 1011.2 | |
| 20260905230416 | 32 | 0.0 | 0.0 | 0.00 | 0.00 | 0.00 | 23 | 1011.2 | |
| 20260905225916 | 32 | 0.0 | 1.6 | 0.00 | 0.00 | 0.00 | 21 | 1011.3 | |
| 20260905225416 | 32 | 0.0 | 3.2 | 0.00 | 0.00 | 0.00 | 21 | 1011.4 | |
| 20260905224916 | 32 | 0.0 | 0.0 | 0.00 | 0.00 | 0.00 | 22 | 1011.4 | |
| 20260905224417 | 32 | 0.0 | 0.0 | 0.00 | 0.00 | 0.00 | 21 | 1011.5 | |
| 20260905223916 | 33 | 215 | 1.6 | 6.4 | 0.00 | 0.00 | 0.00 | 22 | 1011.5 |
| 20260905223416 | 33 | 148 | 3.2 | 6.4 | 0.00 | 0.00 | 0.00 | 21 | 1011.6 |
| 20260905222916 | 32 | 283 | 6.4 | 8.0 | 0.00 | 0.00 | 0.00 | 21 | 1011.6 |
| 20260905222436 | 32 | 170 | 3.2 | 4.8 | 0.00 | 0.00 | 0.00 | 21 | 1011.7 |
| 20260905221917 | 32 | 148 | 4.8 | 6.4 | 0.00 | 0.00 | 0.00 | 21 | 1011.7 |
| 20260905221416 | 32 | 170 | 3.2 | 8.0 | 0.00 | 0.00 | 0.00 | 22 | 1011.7 |
| 20260905220916 | 32 | 148 | 4.8 | 9.7 | 0.00 | 0.00 | 0.00 | 22 | 1011.8 |
| 20260905220416 | 32 | 0.0 | 1.6 | 0.00 | 0.00 | 0.00 | 21 | 1011.9 | |
| 20260905215957 | 32 | 148 | 8.0 | 9.7 | 0.00 | 0.00 | 0.00 | 22 | 1011.9 |
| 20260905215416 | 32 | 148 | 1.6 | 4.8 | 0.00 | 0.00 | 0.00 | 23 | 1012.0 |
| 20260905214916 | 32 | 215 | 1.6 | 3.2 | 0.00 | 0.00 | 0.00 | 24 | 1012.1 |
| 20260905214416 | 32 | 215 | 4.8 | 8.0 | 0.00 | 0.00 | 0.00 | 24 | 1012.2 |
| 20260905213916 | 32 | 125 | 4.8 | 6.4 | 0.00 | 0.00 | 0.00 | 25 | 1012.1 |
| 20260905213416 | 32 | 283 | 4.8 | 8.0 | 0.00 | 0.00 | 0.00 | 26 | 1012.2 |
| 20260905212916 | 32 | 125 | 4.8 | 11.3 | 0.00 | 0.00 | 0.00 | 26 | 1012.2 |